Location: Alfortville
(48.8058°N, 2.4204°E)
Time: 07:01:01
(UTC+00:00)

Lacrosse 4 Rocket - Visible Passes

Search period start: 21 May 2022 00:00
Search period end: 31 May 2022 00:00
Orbit: 540 x 614 km, 68.0° (Epoch: 20 May)

Date Brightness Start Highest point End Pass type
(mag) Time Alt. Az. Time Alt. Az. Time Alt. Az.
25 May 4.3 03:04:47 10° ESE 03:05:45 11° ESE 03:06:44 10° E visible
26 May 4.0 03:06:44 10° SE 03:09:22 16° ESE 03:11:58 10° ENE visible
27 May 3.5 03:09:36 10° SSE 03:13:01 23° ESE 03:16:23 10° ENE visible
